Regional Weather Roundup
Issued by NWS

Home | Current Version | Previous Version | Text Only | Print | Product List | Glossary Off
Versions: 1 2 3 4 5 6 7 8 9 10 11 12 13 14 15 16 17 18 19 20 21 22 23 24 25 26 27 28 29 30 31 32 33 34 35 36 37 38 39 40 41 42 43 44 45 46 47 48 49 50

000
ASUS43 KFSD 041510
RWRSD

WEATHER ROUNDUP FOR SOUTH DAKOTA
NATIONAL WEATHER SERVICE SIOUX FALLS SD
1000 AM CDT TUE AUG 04 2015

NOTE: "FAIR" INDICATES FEW OR NO CLOUDS BELOW 12,000 FEET WITH NO
SIGNIFICANT WEATHER AND/OR OBSTRUCTIONS TO VISIBILITY.


SDZ001>005-009-010-012>017-041600-
NORTHWEST AND NORTH CENTRAL SOUTH DAKOTA

CITY           SKY/WX    TMP DP  RH WIND       PRES   REMARKS
BUFFALO          N/A     73  59  61 SE10      29.92R
FAITH            N/A     73  58  59 S16       29.98R
MOBRIDGE       MOSUNNY   73  61  65 SE5       29.97R
$$

SDZ012>016-024>037-041>051-057-063-072>074-041600-
SOUTHWEST AND SOUTH CENTRAL SOUTH DAKOTA

CITY           SKY/WX    TMP DP  RH WIND       PRES   REMARKS
RAPID CTY ARPT CLOUDY    68  62  81 SE7       29.98S
PIERRE         PTSUNNY   69  62  78 E5        29.95S
CUSTER         PTSUNNY   65  59  81 E8        30.08S
ELLSWORTH AFB  CLOUDY    69  62  79 S10       29.97S
PHILIP         CLOUDY    70  62  76 E6        29.95R
PINE RIDGE     PTSUNNY   67  60  78 SE21G36   29.98R
WINNER         FAIR      71  61  70 SE12      29.93S
$$

SDZ004>011-016>023-039-040-041600-
NORTHEAST SOUTH DAKOTA

CITY           SKY/WX    TMP DP  RH WIND       PRES   REMARKS
ABERDEEN       PTSUNNY   71  57  61 SE9       30.00F
WATERTOWN      PTSUNNY   70  53  54 S8        30.03F
BROOKINGS      CLOUDY    66  54  63 SE7       30.05F
SISSETON         N/A     75  52  44 W8        30.01S
$$

SDZ017-020-022-023-036>040-048>070-041600-
SOUTHEAST SOUTH DAKOTA

CITY           SKY/WX    TMP DP  RH WIND       PRES   REMARKS
SIOUX FALLS    CLOUDY    70  60  70 E6        30.02F
HURON          CLOUDY    67  61  81 SE8       29.97F
CHAMBERLAIN    CLOUDY    65  62  90 E9G18     29.90F
MITCHELL       CLOUDY    70  65  84 E8        29.97F
YANKTON        CLOUDY    66  64  94 SE6       30.00F
$$

ABBREVIATIONS USED IN REMARKS
   TC - TEMPERATURE IN CELSIUS
  WCI - WIND CHILL INDEX
   HX - HEAT INDEX
  VSB - VISIBILITY




USA.gov is the U.S. government's official web portal to all federal, state and local government web resources and services.